STARLINK-31949, 59891

Orbit data source: Space-Track

STARLINK-31949, 59891 is a payload satellite owned by SpaceX/Seattle (US) in LEO that was launched on Tue, 28 May 2024 UTC via an FALCON 9 launch vehicle from the Air Force Eastern Test Range (AFETR). Payload-class satellites include a variety of spacecraft equipped with specific instruments for various scientific and technological missions. These include communications satellites like Starlink; space stations such as the ISS; scientific satellites like the Hubble; Earth observation satellites from companies like Planet Labs, Umbra, and HawkEye 360; GPS; miniature CubeSats for education and research; and military/defense satellites.

Loading next visibility...
Identifier
59891, 2024-100G
Orbit
LEO
Country
Flag of USUS
Related business
Manufacturer
SpaceX/Seattle
Mission
Operational spacecraft
Bus & Motor
STARLINK V2M, Unknown motor
Mass
730 kg wet, ~700 kg dry
Launch date (UTC)
2024-05-28 (1 year ago)
Launch vehicle
FALCON 9
Launch site
Air Force Eastern Test Range (AFETR)
Object type
Payload
Rocket body
Debris
Shape & HBR
Unknown
Radar Cross Section
Large (>1 m²)

Expand to show TLE details & history
Last TLE update: 23 hours ago

TLE from 23 hours ago
0 STARLINK-31949
1 59891U 24100G   25260.06350561 -.00000345  00000-0 -30128-5 0  9993
2 59891  43.0035  25.8856 0001170 277.8793  82.1926 15.27568980 74500
Epoch: 2025-09-17T01:31Z
TLE epoch observation values (Epoch: 2025-09-17T01:31:26.884Z)
Latitude
-0.00002°
Longitude
6.77873°
Altitude
482.749 km
Speed
7.626 km/s
True Right ascension
01h 43m 32s
True Declination
0° 00' 00"
Sunlit
Object was in full shadow at epoch
Visualization orbit readout
Latitude
Unknown
Longitude
Unknown
Altitude
Unknown
Speed
Unknown
Apparent Right ascension
Unknown
Apparent Declination
Unknown
Sunlit
N/A
Visualization observer readout
Local Sidereal Time
17:31:22
Azimuth
Unknown
Elevation
Unknown
Doppler factor
Unknown
Orbital elements
Apogee altitude
485.83 km
Perigee altitude
484.224 km
Semi-major axis
6,863.164 km
Eccentricity
0.00012
Inclination
43.0035°
RAAN
25.8856°
Arg. of periapsis
277.8793°
True anomaly
82.20588°
Mean anomaly
82.1926°
Eccentric anomaly
82.19924°
Mean motion
3.8173 °/min
Orbital period
94.31 mins
BSTAR
-0.0000030128
Loading maneuver chart data...
Computing Atmospheric mass density...
Loading historical data...
Loading historical data...
Loading historical data...
Loading historical data...
Loading historical data...
Loading historical data...
Loading historical data...

Documentation

Showing up to 5 results
|